カタログに戻る

DELTA 1 DEB

運用中LEO
NORAD 10764·DEBRIS·🇺🇸 United States

打ち上げ Jul 29, 1976 から Vandenberg Space Force Base

Loading…

次のパス (今後24時間)

TLE

最新Source: Space-Track

元期: Sep 14, 2026, 19:55 UTC

1 10764U 76077BM  26257.83055243 -.00000171  00000-0 -14148-2 0  9998
2 10764 102.1585  19.1065 0226283 172.8687 343.0984 12.04704100205395

AllMySatでDELTA 1 DEBをリアルタイム追跡

Download on the App Store